Powrót do katalogu

SCOUT G-1 DEB

AktywnyPO
NORAD 22707·DEBRIS·🇺🇸 United States

Wystrzelony Jun 25, 1993 z Vandenberg Space Force Base

Loading…

Następne Przeloty (najbliższe 24 godziny)

TLE

ŚwieżeSource: Space-Track

Epoka: Sep 14, 2026, 01:59 UTC

1 22707U 93041D   26257.08286254  .00000411  00000-0  14665-3 0  9993
2 22707  90.1327 301.3794 0137434   2.5420 357.6442 14.27744946722228

Śledź SCOUT G-1 DEB w czasie rzeczywistym z AllMySat

Download on the App Store